Queralbs





Hora UTC 23:20
Temperatura 4.6 ºC
Humitat 72.0 %
Pressió 1017.4 hPa
Pluja 1.4 mm
Velocitat vent 0.0 km/h
Direcció vent SSE
Radiació solar 0.0 W/m²

Dades diàries 2020-03-31



Hora UTC (hivern +1h; estiu +2h)
Temperatura (ºC) Humitat (%) Pressió (hPa) Velocitat vent (km/h) Precipitació (mm) Radiació solar (W/m²)
Hora UTC Aire Humitat Pressió Vel. Dir. Vel. Max Dir. Intent. màx 5 min. Rad. Sol.
00:05 2.3 73.0 1015.4 0.0 W 0.0 0.0 0.0
00:10 2.2 73.0 1015.4 0.0 W 0.0 0.0 0.0
00:15 2.2 73.0 1015.4 0.0 W 0.0 0.0 0.0
00:20 2.2 73.0 1015.4 0.0 W 0.0 0.0 0.0
00:25 2.3 73.0 1015.4 0.0 W 0.0 0.0 0.0
00:30 2.3 74.0 1015.6 0.0 W 0.0 0.0 0.0
00:35 2.4 74.0 1015.6 0.0 W 0.0 0.0 0.0
00:40 2.4 74.0 1015.6 0.0 W 0.0 0.0 0.0
00:45 2.6 74.0 1015.6 0.0 W 0.0 0.0 0.0
00:50 2.7 74.0 1015.6 0.0 W 0.0 0.0 0.0
00:55 2.7 74.0 1015.6 0.0 W 0.0 0.0 0.0
01:00 2.9 73.0 1015.5 0.0 W 0.0 0.0 0.0
01:05 3.1 73.0 1015.4 0.0 W 0.0 0.0 0.0
01:10 3.2 73.0 1015.3 0.0 W 0.0 0.0 0.0
01:15 3.3 73.0 1015.2 0.0 W 0.0 0.0 0.0
01:20 3.3 73.0 1015.3 1.6 W 3.2 0.0 0.0
01:25 3.2 73.0 1015.3 0.0 W 3.2 0.0 0.0
01:30 3.1 73.0 1015.0 1.6 W 3.2 0.0 0.0
01:35 3.1 73.0 1014.9 0.0 NW 3.2 0.0 0.0
01:40 3.2 73.0 1014.9 0.0 NW 3.2 0.0 0.0
01:45 3.2 73.0 1014.9 0.0 NW 1.6 0.0 0.0
01:50 3.2 73.0 1014.8 0.0 SW 3.2 0.0 0.0
01:55 3.3 73.0 1014.9 0.0 SW 6.4 0.0 0.0
02:00 3.4 73.0 1014.7 1.6 WNW 6.4 0.0 0.0
02:05 3.3 73.0 1014.6 0.0 W 4.8 0.0 0.0
02:10 3.3 73.0 1014.5 3.2 SSE 3.2 0.0 0.0
02:15 3.2 73.0 1014.5 6.4 SSE 6.4 0.0 0.0
02:20 3.2 73.0 1014.4 3.2 SSE 4.8 0.0 0.0
02:25 3.2 73.0 1014.3 1.6 NNE 6.4 0.0 0.0
02:30 3.2 73.0 1014.2 0.0 NNE 6.4 0.0 0.0
02:35 3.3 73.0 1014.3 4.8 SSW 6.4 0.0 0.0
02:40 3.3 73.0 1014.3 0.0 SSW 6.4 0.0 0.0
02:45 3.3 73.0 1014.3 1.6 SSW 4.8 0.0 0.0
02:50 3.3 73.0 1014.3 0.0 SSW 4.8 0.0 0.0
02:55 3.3 73.0 1014.3 0.0 SSW 1.6 0.0 0.0
03:00 3.3 73.0 1014.5 0.0 SSW 0.0 0.0 0.0
03:05 3.3 73.0 1014.5 0.0 SSW 0.0 0.0 0.0
03:10 3.3 73.0 1014.4 0.0 SSW 0.0 0.0 0.0
03:15 3.4 72.0 1014.4 0.0 SSW 0.0 0.0 0.0
03:20 3.3 73.0 1014.5 0.0 SSW 0.0 0.0 0.0
03:25 3.3 73.0 1014.5 0.0 SSW 0.0 0.0 0.0
03:30 3.2 73.0 1014.5 1.6 SW 3.2 0.0 0.0
03:35 3.2 73.0 1014.5 1.6 WSW 3.2 0.0 0.0
03:40 3.3 73.0 1014.4 0.0 WSW 3.2 0.0 0.0
03:45 3.4 73.0 1014.3 1.6 WSW 3.2 0.0 0.0
03:50 3.4 73.0 1014.3 0.0 WSW 1.6 0.0 0.0
03:55 3.5 72.0 1014.5 0.0 WSW 3.2 0.0 0.0
04:00 3.4 72.0 1014.4 0.0 WSW 3.2 0.0 0.0
04:05 3.2 73.0 1014.4 0.0 WSW 0.0 0.0 0.0
04:10 3.1 73.0 1014.6 1.6 S 4.8 0.0 0.0
04:15 3.0 73.0 1014.8 0.0 S 4.8 0.0 0.0
04:20 3.0 73.0 1014.8 0.0 S 3.2 0.0 0.0
04:25 3.1 73.0 1014.9 3.2 E 4.8 0.0 0.0
04:30 2.9 73.0 1015.0 1.6 E 4.8 0.0 0.0
04:35 0.0
04:40 2.8 74.0 1015.1 0.0 E 3.2 0.0 0.0
04:45 2.9 74.0 1015.2 0.0 E 3.2 0.0 0.0
04:50 3.0 74.0 1015.2 0.0 E 3.2 0.0 0.0
04:55 3.1 74.0 1015.2 1.6 E 3.2 0.0 0.0
05:00 3.2 73.0 1015.0 0.0 E 1.6 0.0 0.0
05:05 3.2 73.0 1015.0 0.0 E 1.6 0.0 0.0
05:10 3.2 73.0 1014.9 0.0 E 0.0 0.0 0.0
05:15 3.3 73.0 1014.7 0.0 E 0.0 0.0 0.0
05:20 3.4 73.0 1014.8 1.6 E 1.6 0.0 0.0
05:25 3.4 73.0 1014.7 0.0 E 1.6 0.0 0.0
05:30 3.4 73.0 1014.6 0.0 E 1.6 0.0 0.0
05:35 3.3 73.0 1014.6 0.0 E 1.6 0.0 0.0
05:40 3.2 73.0 1014.8 3.2 SSW 3.2 0.0 0.0
05:45 3.3 73.0 1015.0 1.6 SSW 3.2 0.0 0.0
05:50 3.4 73.0 1015.2 3.2 SSW 3.2 0.0 5.0
05:55 3.3 73.0 1015.2 1.6 SSW 4.8 0.0 5.0
06:00 3.2 73.0 1015.5 1.6 SSW 4.8 0.0 5.0
06:05 3.2 73.0 1015.6 3.2 S 4.8 0.0 5.0
06:10 2.9 73.0 1015.7 1.6 S 4.8 0.0 7.0
06:15 2.9 73.0 1016.0 0.0 S 4.8 0.0 9.0
06:20 2.9 73.0 1016.2 3.2 SSE 6.4 0.0 9.0
06:25 2.8 73.0 1016.2 1.6 SSE 4.8 0.0 11.0
06:30 2.8 74.0 1016.3 1.6 SSE 4.8 0.0 21.0
06:35 2.8 74.0 1016.1 0.0 ENE 4.8 0.0 33.0
06:40 2.8 75.0 1016.2 0.0 ENE 4.8 0.0 30.0
06:45 3.1 75.0 1016.3 0.0 ENE 3.2 0.0 33.0
06:50 3.3 75.0 1016.2 0.0 ENE 3.2 0.0 26.0
06:55 3.3 74.0 1016.2 1.6 ENE 4.8 0.0 40.0
07:00 3.3 74.0 1016.1 1.6 ENE 4.8 0.0 70.0
07:05 3.3 75.0 1016.0 0.0 ENE 3.2 0.0 91.0
07:10 3.4 75.0 1016.0 0.0 ENE 1.6 0.0 127.0
07:15 3.8 75.0 1015.8 0.0 ENE 1.6 0.0 155.0
07:20 4.1 75.0 1015.9 0.0 ENE 1.6 0.0 179.0
07:25 4.3 75.0 1016.0 1.6 ENE 1.6 0.0 181.0
07:30 4.6 75.0 1015.8 4.8 S 6.4 0.0 192.0
07:35 4.7 74.0 1015.7 3.2 S 4.8 0.0 216.0
07:40 4.8 75.0 1015.7 0.0 S 4.8 0.0 246.0
07:45 5.1 75.0 1015.7 1.6 S 4.8 0.0 227.0
07:50 5.0 74.0 1015.7 1.6 S 4.8 0.0 236.0
07:55 4.9 74.0 1015.6 3.2 S 4.8 0.0 258.0
08:00 4.9 75.0 1015.5 3.2 ESE 4.8 0.0 290.0
08:05 4.9 74.0 1015.6 1.6 ESE 4.8 0.0 343.0
08:10 5.1 74.0 1015.6 1.6 ESE 3.2 0.0 350.0
08:15 5.6 75.0 1015.4 3.2 ESE 3.2 0.0 446.0
08:20 6.0 74.0 1015.6 3.2 ESE 4.8 0.0 436.0
08:25 6.3 73.0 1015.7 3.2 SSE 9.7 0.0 436.0
08:30 6.6 73.0 1015.7 6.4 SSE 9.7 0.0 519.0
08:35 6.8 71.0 1015.8 6.4 SSE 8.0 0.0 501.0
08:40 6.9 71.0 1015.6 6.4 SSE 8.0 0.0 496.0
08:45 6.7 70.0 1015.8 3.2 SE 8.0 0.0 497.0
08:50 6.8 71.0 1015.8 1.6 S 8.0 0.0 512.0
08:55 7.1 71.0 1016.0 3.2 S 6.4 0.0 554.0
09:00 7.2 70.0 1015.9 0.0 SE 6.4 0.0 557.0
09:05 7.3 69.0 1016.0 1.6 SE 6.4 0.0 582.0
09:10 7.7 69.0 1016.1 3.2 SSE 6.4 0.0 512.0
09:15 7.7 68.0 1016.2 1.6 S 6.4 0.0 696.0
09:20 7.9 69.0 1016.2 3.2 SE 6.4 0.0 510.0
09:25 8.1 67.0 1015.9 6.4 SSE 6.4 0.0 636.0
09:30 8.1 65.0 1015.9 4.8 ESE 9.7 0.0 889.0
09:35 0.0
09:40 8.6 66.0 1016.1 4.8 SE 11.3 0.0 877.0
09:45 8.9 65.0 1016.1 6.4 SSE 8.0 0.0 896.0
09:50 8.8 63.0 1016.1 9.7 SSE 12.9 0.0 308.0
09:55 8.5 64.0 1016.1 6.4 S 12.9 0.0 496.0
10:00 8.6 63.0 1016.1 4.8 SE 9.7 0.0 726.0
10:05 8.7 64.0 1016.2 1.6 SE 11.3 0.0 362.0
10:10 8.8 63.0 1016.2 4.8 SSE 8.0 0.0 306.0
10:15 8.7 62.0 1016.3 3.2 SE 9.7 0.0 276.0
10:20 8.6 62.0 1016.1 4.8 SSE 9.7 0.0 304.0
10:25 8.5 62.0 1016.0 4.8 SE 9.7 0.0 390.0
10:30 8.7 63.0 1016.1 9.7 SSE 11.3 0.0 534.0
10:35 0.0
10:40 8.8 64.0 1016.0 8.0 SSE 12.9 0.0 357.0
10:45 8.7 64.0 1016.0 6.4 SSE 12.9 0.0 301.0
10:50 8.4 64.0 1016.1 3.2 S 11.3 0.0 229.0
10:55 8.2 64.0 1016.1 6.4 SE 9.7 0.0 197.0
11:00 8.1 65.0 1016.1 4.8 SE 8.0 0.0 179.0
11:05 8.0 65.0 1016.0 4.8 SSW 8.0 0.0 158.0
11:10 8.0 66.0 1015.9 4.8 SSE 8.0 0.0 181.0
11:15 7.9 66.0 1016.0 8.0 SSE 8.0 0.0 158.0
11:20 7.8 66.0 1016.1 3.2 SSE 9.7 0.0 144.0
11:25 7.7 66.0 1016.1 3.2 S 11.3 0.0 135.0
11:30 7.4 67.0 1016.0 3.2 SE 12.9 0.0 130.0
11:35 0.0
11:40 7.1 69.0 1016.0 4.8 SE 11.3 0.0 114.0
11:45 6.9 69.0 1016.0 8.0 SSE 11.3 0.0 98.0
11:50 6.7 70.0 1016.1 3.2 SSE 11.3 0.0 98.0
11:55 6.6 71.0 1016.2 6.4 SSW 9.7 0.0 114.0
12:00 6.3 70.0 1016.1 6.4 SW 9.7 0.0 132.0
12:05 6.2 70.0 1016.2 1.6 SSW 9.7 0.0 134.0
12:10 6.2 70.0 1016.0 3.2 N 8.0 0.0 135.0
12:15 6.2 69.0 1016.0 4.8 NNE 6.4 0.0 137.0
12:20 6.4 70.0 1016.2 1.6 ENE 6.4 0.0 134.0
12:25 6.7 70.0 1016.0 9.7 E 9.7 0.0 125.0
12:30 6.7 70.0 1016.0 1.6 NE 8.0 0.0 118.0
12:35 6.7 70.0 1016.1 1.6 NNE 8.0 0.0 118.0
12:40 6.8 70.0 1016.0 0.0 NNE 3.2 0.0 95.0
12:45 7.0 70.0 1016.0 1.6 E 3.2 0.0 79.0
12:50 7.1 69.0 1016.0 1.6 ESE 4.8 0.0 76.0
12:55 7.1 69.0 1016.1 3.2 SSE 4.8 0.0 74.0
13:00 7.1 69.0 1016.1 3.2 SSE 8.0 0.0 62.0
13:05 7.0 69.0 1016.2 3.2 SSE 8.0 0.0 51.0
13:10 6.9 69.0 1016.2 0.0 SSE 8.0 0.0 58.0
13:15 6.9 69.0 1016.1 0.0 SSE 4.8 0.0 72.0
13:20 7.1 69.0 1016.0 3.2 NNE 8.0 0.0 69.0
13:25 6.9 68.0 1016.0 4.8 NNE 6.4 0.0 83.0
13:30 6.9 69.0 1016.0 3.2 ENE 6.4 0.0 98.0
13:35 0.0
13:40 6.9 69.0 1016.0 1.6 ENE 6.4 0.0 83.0
13:45 6.9 69.0 1016.0 3.2 ENE 6.4 0.0 74.0
13:50 6.8 69.0 1015.8 1.6 ENE 6.4 0.0 74.0
13:55 6.7 68.0 1015.8 1.6 ENE 4.8 0.0 72.0
14:00 6.7 69.0 1015.9 1.6 ENE 3.2 0.0 65.0
14:05 6.9 70.0 1016.1 1.6 S 3.2 0.0 67.0
14:10 7.1 69.0 1015.8 0.0 S 3.2 0.0 74.0
14:15 7.2 68.0 1015.8 3.2 S 3.2 0.0 74.0
14:20 7.1 67.0 1015.8 3.2 N 6.4 0.0 69.0
14:25 6.9 65.0 1015.7 9.7 NE 9.7 0.0 63.0
14:30 6.7 62.0 1015.8 1.6 NE 11.3 0.0 63.0
14:35 0.0
14:40 6.8 65.0 1015.9 0.0 NE 3.2 0.0 58.0
14:45 6.8 64.0 1015.9 1.6 NE 3.2 0.0 53.0
14:50 6.9 65.0 1015.8 0.0 NE 3.2 0.0 54.0
14:55 6.9 65.0 1015.7 1.6 NE 4.8 0.0 53.0
15:00 6.7 64.0 1015.8 1.6 NE 4.8 0.0 46.0
15:05 6.4 64.0 1015.8 1.6 NE 4.8 0.0 42.0
15:10 6.6 66.0 1015.7 0.0 NE 3.2 0.0 40.0
15:15 6.6 67.0 1015.6 0.0 NE 1.6 0.0 39.0
15:20 6.6 67.0 1015.8 0.0 NE 1.6 0.0 32.0
15:25 6.3 67.0 1015.8 3.2 NE 3.2 0.0 30.0
15:30 6.0 66.0 1015.8 3.2 WNW 4.8 0.0 28.0
15:35 0.0
15:40 5.8 66.0 1015.8 1.6 W 4.8 0.0 35.0
15:45 5.8 67.0 1015.7 0.0 WNW 4.8 0.0 33.0
15:50 5.7 67.0 1015.6 3.2 WNW 6.4 0.0 30.0
15:55 5.7 68.0 1015.6 1.6 WNW 6.4 0.0 26.0
16:00 5.8 69.0 1015.5 0.0 WNW 4.8 0.0 25.0
16:05 5.7 68.0 1015.4 0.0 WNW 3.2 0.0 25.0
16:10 5.7 70.0 1015.4 1.6 WNW 3.2 0.0 21.0
16:15 5.8 70.0 1015.4 0.0 WNW 3.2 0.0 19.0
16:20 5.9 70.0 1015.2 0.0 WNW 3.2 0.0 19.0
16:25 5.9 70.0 1015.4 1.6 WNW 3.2 0.0 19.0
16:30 5.9 70.0 1015.3 0.0 WNW 3.2 0.0 16.0
16:35 0.0
16:40 5.7 70.0 1015.3 1.6 SSE 4.8 0.0 16.0
16:45 5.8 70.0 1015.3 6.4 W 6.4 0.0 16.0
16:50 5.6 68.0 1015.3 1.6 WNW 6.4 0.0 16.0
16:55 5.5 70.0 1015.4 4.8 N 9.7 0.0 12.0
17:00 5.3 71.0 1015.4 3.2 NNW 9.7 0.0 12.0
17:05 5.1 71.0 1015.5 4.8 WNW 6.4 0.0 11.0
17:10 5.1 70.0 1015.6 1.6 NE 6.4 0.0 11.0
17:15 5.1 71.0 1015.5 3.2 NE 4.8 0.0 9.0
17:20 5.1 71.0 1015.4 1.6 NE 3.2 0.0 9.0
17:25 5.1 71.0 1015.5 4.8 N 6.4 0.0 9.0
17:30 5.1 71.0 1015.5 1.6 NNW 6.4 0.0 7.0
17:35 0.0
17:40 5.1 71.0 1015.7 0.0 NNW 1.6 0.0 5.0
17:45 5.0 70.0 1015.5 1.6 NNW 3.2 0.0 0.0
17:50 5.1 71.0 1015.6 3.2 ENE 4.8 0.0 0.0
17:55 5.1 71.0 1015.6 1.6 NE 4.8 0.0 0.0
18:00 5.0 71.0 1015.7 1.6 NE 4.8 0.0 0.0
18:05 5.0 72.0 1015.7 1.6 S 3.2 0.0 0.0
18:10 5.0 72.0 1015.7 3.2 S 3.2 0.0 0.0
18:15 4.9 72.0 1015.8 1.6 S 3.2 0.0 0.0
18:20 5.0 72.0 1016.0 1.6 S 3.2 0.0 0.0
18:25 4.9 72.0 1016.1 1.6 S 3.2 0.0 0.0
18:30 4.9 72.0 1016.2 4.8 E 4.8 0.0 0.0
18:35 0.0
18:40 4.9 72.0 1016.3 3.2 E 3.2 0.2 0.0
18:45 4.8 72.0 1016.3 0.0 E 3.2 0.0 0.0
18:50 4.9 72.0 1016.2 0.0 E 3.2 0.0 0.0
18:55 4.9 72.0 1016.4 1.6 E 3.2 0.2 0.0
19:00 4.9 72.0 1016.5 0.0 E 3.2 0.0 0.0
19:05 4.9 72.0 1016.6 9.7 SSW 9.7 0.0 0.0
19:10 4.8 73.0 1016.7 1.6 S 9.7 0.0 0.0
19:15 4.7 73.0 1016.7 0.0 S 4.8 0.0 0.0
19:20 4.7 73.0 1016.8 1.6 SE 4.8 0.0 0.0
19:25 4.7 73.0 1016.8 0.0 SE 4.8 0.0 0.0
19:30 4.7 73.0 1016.9 3.2 SE 3.2 0.0 0.0
19:35 4.7 73.0 1016.9 0.0 SE 3.2 0.0 0.0
19:40 4.7 73.0 1016.9 0.0 SE 3.2 0.0 0.0
19:45 4.7 73.0 1016.9 3.2 SE 3.2 0.0 0.0
19:50 4.7 72.0 1016.9 3.2 ENE 6.4 0.0 0.0
19:55 4.6 72.0 1016.8 1.6 NE 6.4 0.0 0.0
20:00 4.6 73.0 1016.8 0.0 NE 4.8 0.0 0.0
20:05 4.6 73.0 1016.8 3.2 NW 4.8 0.0 0.0
20:10 4.5 72.0 1016.8 1.6 S 4.8 0.0 0.0
20:15 4.4 72.0 1016.7 3.2 SE 4.8 0.0 0.0
20:20 4.4 72.0 1016.7 0.0 SE 3.2 0.0 0.0
20:25 4.4 72.0 1016.8 0.0 SE 3.2 0.2 0.0
20:30 4.4 72.0 1016.9 0.0 SE 3.2 0.0 0.0
20:35 0.0
20:40 4.4 72.0 1017.0 0.0 SSE 4.8 0.0 0.0
20:45 4.4 72.0 1017.1 0.0 SSE 3.2 0.0 0.0
20:50 4.5 72.0 1017.0 0.0 SSE 3.2 0.0 0.0
20:55 4.5 72.0 1017.1 0.0 SSE 3.2 0.2 0.0
21:00 4.6 72.0 1017.1 0.0 SSE 0.0 0.0 0.0
21:05 4.6 72.0 1017.1 1.6 SSE 1.6 0.0 0.0
21:10 4.6 72.0 1017.2 0.0 SSE 1.6 0.0 0.0
21:15 4.7 72.0 1017.1 0.0 SSE 1.6 0.0 0.0
21:20 4.8 72.0 1017.0 1.6 SSE 1.6 0.2 0.0
21:25 4.8 72.0 1017.1 3.2 SSE 3.2 0.0 0.0
21:30 4.7 72.0 1017.2 1.6 SSE 3.2 0.0 0.0
21:35 0.0
21:40 4.6 72.0 1017.1 0.0 SSE 3.2 0.0 0.0
21:45 4.7 72.0 1017.2 0.0 SSE 1.6 0.2 0.0
21:50 4.6 72.0 1017.2 3.2 SSE 3.2 0.0 0.0
21:55 4.4 72.0 1017.3 1.6 SSE 3.2 0.0 0.0
22:00 4.3 73.0 1017.2 0.0 SSE 3.2 0.0 0.0
22:05 4.3 73.0 1017.2 1.6 SSE 3.2 0.0 0.0
22:10 4.3 73.0 1017.3 1.6 SSE 3.2 0.0 0.0
22:15 4.2 73.0 1017.2 1.6 SSE 3.2 0.0 0.0
22:20 4.2 73.0 1017.1 0.0 SSE 1.6 0.0 0.0
22:25 4.2 73.0 1017.2 0.0 SSE 1.6 0.0 0.0
22:30 4.3 73.0 1017.3 0.0 SSE 1.6 0.0 0.0
22:35 4.3 73.0 1017.3 0.0 SSE 1.6 0.0 0.0
22:40 4.4 72.0 1017.3 0.0 SSE 0.0 0.0 0.0
22:45 4.4 72.0 1017.2 3.2 SSE 3.2 0.0 0.0
22:50 4.4 72.0 1017.2 1.6 SSE 4.8 0.0 0.0
22:55 4.3 72.0 1017.2 0.0 SSE 3.2 0.0 0.0
23:00 4.3 72.0 1017.3 0.0 SSE 1.6 0.0 0.0
23:05 4.3 72.0 1017.3 0.0 SSE 1.6 0.0 0.0
23:10 4.4 72.0 1017.3 0.0 SSE 1.6 0.0 0.0
23:15 4.6 72.0 1017.3 0.0 SSE 1.6 0.2 0.0
23:20 4.6 72.0 1017.4 0.0 SSE 0.0 0.0 0.0
Màxima 8.9 75.0 1017.4 9.7 SSW 12.9 0.2 896.0
Mínima 2.2 62.0 1014.2
Total 1.4